User: anonymous   Login
Location: Hopkins Observatory
(42.6965°N, 73.1843°W)
Time: 23:03:20
(UTC-05:00)
Language:

RS-15 - Orbit

View from above orbital plane
View from above orbital plane
View from above satellite
View from above satellite

Ground track
Ground track

The orbit data is extracted from the following two-line orbital elements,

1 23439U 94085A   14329.90626505 -.00000033  00000-0  28060-3 0  7432
2 23439 064.8187 290.2099 0147571 051.0072 310.3890 11.27561716820234
Epoch (UTC): 25 November 2014 21:45:01
Eccentricity: 0.0147571
inclination: 64.8187°
perigee height: 1898 km
apogee height: 2146 km
right ascension of ascending node: 290.2099°
argument of perigee: 51.0072°
revolutions per day: 11.27561716
mean anomaly at epoch: 310.3890°
orbit number at epoch: 82023

The dashed part of the orbit path shows where the satellite is in the earth's shadow,  

DLR